Weather History for Tampa Knight Airport, FL

Change the Weather History Date:

Monday, July 8, 2013

  Actual Average (KTPA) Record (KTPA)
Temperature  
Mean Temperature 83 °F 83 °F  
Max Temperature 91 °F 90 °F 96 °F (1902)
Min Temperature 75 °F 76 °F 69 °F (1964)
Degree Days  
Heating Degree Days 0 0  
Month to date heating degree days 0  
Since 1 June heating degree days 0  
Since 1 July heating degree days 0  
Cooling Degree Days 18 18  
Month to date cooling degree days 144  
Year to date cooling degree days 1537  
Since 1 June cooling degree days 660  
Growing Degree Days 33 (Base 50)    
Moisture  
Dew Point 71 °F    
Average Humidity 70    
Maximum Humidity 89    
Minimum Humidity 43    
Precipitation  
Precipitation 0.04 in 0.25 in 4.49 in (2014)
Month to date precipitation 2.02  
Year to date precipitation 20.90  
Sea Level Pressure  
Sea Level Pressure 30.13 in    
Wind  
Wind Speed 6 mph (East)    
Max Wind Speed 10 mph    
Max Gust Speed 34 mph    
Visibility 10 miles    
Events Rain    
T = Trace of Precipitation, MM = Missing Value Source: NWS Daily Summary

Daily Weather History Graph

Daily Weather History Graph

Search for Another Location

Airport:

Trip Planner

Search our weather history database for the weather conditions in past years. The results will help you decide how hot, cold, wet, or windy it might be!

Date:

Astronomy

Jul. 08, 2013 Rise Set
Actual Time 6:40 AM EDT 8:29 PM EDT
Civil Twilight 6:13 AM EDT 8:55 PM EDT
Nautical Twilight 5:41 AM EDT 9:27 PM EDT
Astronomical Twilight 5:08 AM EDT 10:01 PM EDT
Moon 7:00 AM EDT (7/8) 8:40 PM EDT (7/8)
Length of Visible Light 14h 42m
Length of Day
13h 49m
New Moon, 0% of the Moon is Illuminated
Jul 8
New Moon
Jul 15
First Quarter
Jul 22
Full
Jul 29
Last Quarter
Aug 6
New

Hourly Weather History & Observations

Time (EDT) Temp. Heat Index Dew Point Humidity Pressure Visibility Wind Dir Wind Speed Gust Speed Precip Events Conditions
12:15 AM 78.8 °F - 71.6 °F 78% 30.14 in 10.0 mi East 6.9 mph - N/A   Clear
12:35 AM 78.8 °F - 71.6 °F 78% 30.14 in 10.0 mi East 5.8 mph - N/A   Clear
12:55 AM 78.8 °F - 71.6 °F 78% 30.14 in 10.0 mi East 6.9 mph - N/A   Clear
1:15 AM 78.8 °F - 71.6 °F 78% 30.14 in 10.0 mi East 6.9 mph - N/A   Clear
1:35 AM 78.8 °F - 71.6 °F 78% 30.14 in 10.0 mi East 5.8 mph - N/A   Clear
1:55 AM 78.8 °F - 71.6 °F 78% 30.13 in 10.0 mi East 5.8 mph - N/A   Clear
2:15 AM 77.0 °F - 71.6 °F 83% 30.13 in 10.0 mi East 5.8 mph - N/A   Clear
2:35 AM 77.0 °F - 71.6 °F 83% 30.13 in 10.0 mi East 5.8 mph - N/A   Clear
2:55 AM 77.0 °F - 71.6 °F 83% 30.12 in 10.0 mi East 4.6 mph - N/A   Clear
3:15 AM 77.0 °F - 71.6 °F 83% 30.11 in 10.0 mi East 5.8 mph - N/A   Clear
3:35 AM 77.0 °F - 71.6 °F 83% 30.11 in 10.0 mi ENE 5.8 mph - N/A   Clear
3:55 AM 77.0 °F - 71.6 °F 83% 30.11 in 10.0 mi East 5.8 mph - N/A   Clear
4:15 AM 77.0 °F - 71.6 °F 83% 30.11 in 10.0 mi ENE 3.5 mph - N/A   Clear
4:35 AM 75.2 °F - 71.6 °F 89% 30.11 in 10.0 mi ENE 4.6 mph - N/A   Clear
4:55 AM 75.2 °F - 71.6 °F 89% 30.10 in 10.0 mi ENE 5.8 mph - N/A   Clear
5:15 AM 75.2 °F - 71.6 °F 89% 30.10 in 10.0 mi ENE 8.1 mph - N/A   Clear
5:35 AM 75.2 °F - 71.6 °F 89% 30.10 in 10.0 mi ENE 5.8 mph - N/A   Clear
5:55 AM 75.2 °F - 71.6 °F 89% 30.10 in 10.0 mi East 8.1 mph - N/A   Clear
6:15 AM 75.2 °F - 71.6 °F 89% 30.11 in 10.0 mi East 6.9 mph - N/A   Clear
6:55 AM 75.2 °F - 71.6 °F 89% 30.12 in 10.0 mi East 5.8 mph - N/A   Clear
7:15 AM 77.0 °F - 71.6 °F 83% 30.13 in 10.0 mi East 5.8 mph - N/A   Clear
7:35 AM 77.0 °F - 73.4 °F 89% 30.13 in 10.0 mi East 5.8 mph - N/A   Clear
7:55 AM 77.0 °F - 73.4 °F 89% 30.12 in 10.0 mi East 6.9 mph - N/A   Clear
8:15 AM 78.8 °F - 73.4 °F 83% 30.13 in 10.0 mi East 9.2 mph - N/A   Clear
8:35 AM 80.6 °F 85.4 °F 73.4 °F 79% 30.13 in 10.0 mi East 6.9 mph - N/A   Clear
8:55 AM 80.6 °F 84.6 °F 71.6 °F 74% 30.13 in 10.0 mi East 9.2 mph - N/A   Clear
9:15 AM 82.4 °F 87.2 °F 71.6 °F 70% 30.14 in 10.0 mi East 6.9 mph - N/A   Clear
9:35 AM 82.4 °F 87.2 °F 71.6 °F 70% 30.15 in 10.0 mi East 8.1 mph - N/A   Clear
9:55 AM 84.2 °F 89.6 °F 71.6 °F 66% 30.16 in 10.0 mi East 9.2 mph - N/A   Clear
10:15 AM 86.0 °F 91.8 °F 71.6 °F 62% 30.16 in 10.0 mi East 9.2 mph - N/A   Clear
10:35 AM 86.0 °F 91.8 °F 71.6 °F 62% 30.16 in 10.0 mi East 4.6 mph - N/A   Clear
10:55 AM 86.0 °F 91.8 °F 71.6 °F 62% 30.16 in 10.0 mi East 6.9 mph - N/A   Scattered Clouds
11:15 AM 87.8 °F 93.8 °F 71.6 °F 58% 30.16 in 10.0 mi ENE 6.9 mph - N/A   Scattered Clouds
11:35 AM 87.8 °F 93.8 °F 71.6 °F 58% 30.16 in 10.0 mi East 4.6 mph - N/A   Scattered Clouds
11:55 AM 87.8 °F 93.8 °F 71.6 °F 58% 30.16 in 10.0 mi East 5.8 mph - N/A   Scattered Clouds
12:15 PM 86.0 °F 90.4 °F 69.8 °F 58% 30.16 in 10.0 mi East 5.8 mph - N/A   Mostly Cloudy
12:35 PM 89.6 °F 94.7 °F 69.8 °F 52% 30.16 in 10.0 mi East 8.1 mph - N/A   Scattered Clouds
12:55 PM 89.6 °F 96.2 °F 71.6 °F 55% 30.16 in 10.0 mi ESE 3.5 mph - N/A   Scattered Clouds
1:15 PM 89.6 °F 94.7 °F 69.8 °F 52% 30.15 in 10.0 mi ENE 6.9 mph - N/A   Scattered Clouds
1:35 PM 89.6 °F 94.7 °F 69.8 °F 52% 30.15 in 10.0 mi NE 6.9 mph - N/A   Scattered Clouds
1:55 PM 89.6 °F 94.7 °F 69.8 °F 52% 30.15 in 10.0 mi ENE 6.9 mph - N/A   Mostly Cloudy
2:15 PM 89.6 °F 96.2 °F 71.6 °F 55% 30.14 in 10.0 mi NE 8.1 mph - N/A   Mostly Cloudy
2:35 PM 89.6 °F 93.4 °F 68.0 °F 49% 30.13 in 10.0 mi East 5.8 mph - N/A   Mostly Cloudy
2:55 PM 91.4 °F 95.4 °F 68.0 °F 46% 30.12 in 10.0 mi ENE 8.1 mph - N/A   Scattered Clouds
3:15 PM 91.4 °F 95.4 °F 68.0 °F 46% 30.12 in 10.0 mi ESE 4.6 mph - N/A   Scattered Clouds
3:35 PM 89.6 °F 92.2 °F 66.2 °F 46% 30.11 in 10.0 mi ESE 5.8 mph - N/A   Scattered Clouds
3:55 PM 91.4 °F 95.4 °F 68.0 °F 46% 30.11 in 10.0 mi East 3.5 mph - N/A   Scattered Clouds
4:15 PM 91.4 °F 95.4 °F 68.0 °F 46% 30.10 in 10.0 mi East 6.9 mph - N/A   Clear
4:35 PM 91.4 °F 94.0 °F 66.2 °F 43% 30.09 in 10.0 mi East 5.8 mph - N/A   Clear
4:55 PM 91.4 °F 94.0 °F 66.2 °F 43% 30.09 in 10.0 mi ESE 6.9 mph 17.3 mph N/A   Clear
5:15 PM 91.4 °F 95.4 °F 68.0 °F 46% 30.08 in 10.0 mi SE 8.1 mph - N/A   Scattered Clouds
5:35 PM 87.8 °F 93.8 °F 71.6 °F 58% 30.09 in 10.0 mi SSE 10.4 mph - N/A   Mostly Cloudy
5:55 PM 86.0 °F 91.8 °F 71.6 °F 62% 30.08 in 10.0 mi South 6.9 mph - N/A   Scattered Clouds
6:15 PM 87.8 °F 93.8 °F 71.6 °F 58% 30.08 in 10.0 mi SSW 6.9 mph - N/A   Clear
6:35 PM 87.8 °F 93.8 °F 71.6 °F 58% 30.08 in 10.0 mi South 6.9 mph - N/A   Scattered Clouds
6:55 PM 82.4 °F 86.3 °F 69.8 °F 66% 30.08 in 4.0 mi SSE 10.4 mph 34.5 mph 0.03 in Rain Rain
7:15 PM 80.6 °F 84.6 °F 71.6 °F 74% 30.08 in 10.0 mi SSW 5.8 mph - 0.01 in   Overcast
7:35 PM 82.4 °F 88.2 °F 73.4 °F 74% 30.10 in 10.0 mi SSW 5.8 mph - 0.01 in   Overcast
7:55 PM 80.6 °F 85.4 °F 73.4 °F 79% 30.11 in 10.0 mi NW 6.9 mph - 0.01 in   Overcast
8:15 PM 78.8 °F - 71.6 °F 78% 30.12 in 10.0 mi NW 5.8 mph - N/A   Mostly Cloudy
8:35 PM 78.8 °F - 71.6 °F 78% 30.12 in 10.0 mi WNW 3.5 mph - N/A   Scattered Clouds
8:55 PM 78.8 °F - 71.6 °F 78% 30.14 in 10.0 mi North 3.5 mph - N/A   Mostly Cloudy
9:15 PM 78.8 °F - 71.6 °F 78% 30.14 in 10.0 mi Calm Calm - N/A   Mostly Cloudy
9:35 PM 78.8 °F - 71.6 °F 78% 30.15 in 10.0 mi Calm Calm - N/A   Scattered Clouds
9:55 PM 78.8 °F - 71.6 °F 78% 30.15 in 10.0 mi NNE 3.5 mph - N/A   Scattered Clouds
10:15 PM 78.8 °F - 69.8 °F 74% 30.15 in 10.0 mi NW 3.5 mph - N/A   Scattered Clouds
10:35 PM 78.8 °F - 69.8 °F 74% 30.16 in 10.0 mi Calm Calm - N/A   Scattered Clouds
10:55 PM 78.8 °F - 69.8 °F 74% 30.17 in 10.0 mi North 3.5 mph - N/A   Scattered Clouds
11:15 PM 78.8 °F - 69.8 °F 74% 30.17 in 10.0 mi Calm Calm - N/A   Scattered Clouds
11:35 PM 78.8 °F - 69.8 °F 74% 30.17 in 10.0 mi Calm Calm - N/A   Scattered Clouds
11:55 PM 78.8 °F - 69.8 °F 74% 30.17 in 10.0 mi Calm Calm - N/A   Clear